Flag for U.S.A. Weather past 2 weeks in Carson City, Nevada, U.S.A.

Now
25 °F

Scattered clouds.


Feels Like: 25 °F
Forecast: 18 / 48 °F
Wind: No wind

Location: Reno Tahoe International Airport

Current Time: Mar 4, 2015 at 8:11:04 AM

Latest Report: Mar 4, 2015 at 6:55 AM


Visibility: 10 mi

Pressure: 30.22 "Hg

Humidity: 72%

Dew point: 17 °F

Location of Carson CityLocation

Historic Weather in Carson City — Graph

°F

Carson City temperature yesterday

Maximum temperature yesterday: 45 °F (at 2:55 PM)
Minimum temperature yesterday: 31 °F (at 11:55 PM)
Average temperature yesterday: 39 °F

Past Weeks' High & Low Weather Summary

 TemperatureHumidityPressure
High70 °F (Feb 18, 2:55 PM)100% (Feb 28, 2:55 AM)30.51 "Hg (Feb 28, 2:55 AM)
Low22 °F (Feb 23, 6:55 AM)6% (Feb 24, 2:55 PM)29.56 "Hg (Feb 27, 2:55 PM)
Average42 °F50%30.03 "Hg
* Reported Feb 17 6:55 AM — Mar 4 6:55 AM, Carson City, Weather by CustomWeather, © 2015

Note: Actual official high and low records may vary slightly from our data, if they occured in-between our weather recording intervals... More about our weather records

Advertising

Carson City weather history for previous 24 hours

 ConditionsComfort  
Time TempWeatherWind HumidityBarometerVisibility
6:55 AM
Wed, Mar 4
25 °FScattered clouds.No wind72%30.22 "Hg10 mi
5:55 AM23 °FPassing clouds.5 mph78%30.20 "Hg10 mi
4:55 AM26 °FPassing clouds.3 mph69%30.17 "Hg10 mi
3:55 AM27 °FPassing clouds.3 mph66%30.15 "Hg10 mi
2:55 AM27 °FClear.No wind72%30.14 "Hg10 mi
1:55 AM28 °FClear.No wind69%30.14 "Hg10 mi
12:55 AM29 °FClear.No wind66%30.14 "Hg10 mi
11:55 PM
Tue, Mar 3
31 °FClear.No wind61%30.13 "Hg10 mi
10:55 PM34 °FClear.3 mph52%30.11 "Hg10 mi
9:55 PM34 °FClear.3 mph52%30.10 "Hg10 mi
8:55 PM34 °FClear.5 mph52%30.09 "Hg10 mi
7:55 PM38 °FClear.7 mph43%30.06 "Hg10 mi
6:55 PM39 °FClear.10 mph41%30.04 "Hg10 mi
5:55 PM42 °FClear.9 mph33%30.00 "Hg10 mi
4:55 PM45 °FPassing clouds.7 mph30%29.99 "Hg10 mi
3:55 PM45 °FPassing clouds.5 mph34%29.98 "Hg10 mi
2:55 PM45 °FPassing clouds.9 mph35%29.99 "Hg10 mi
1:55 PM44 °FPassing clouds.9 mph35%30.00 "Hg10 mi
12:55 PM43 °FScattered clouds.6 mph37%30.02 "Hg10 mi
11:55 AM41 °FScattered clouds.No wind41%30.05 "Hg10 mi
10:55 AM40 °FPartly sunny.15 mph47%30.05 "Hg10 mi
9:55 AM40 °FPartly sunny.13 mph53%30.04 "Hg10 mi
8:55 AM39 °FPartly sunny.15 mph57%30.03 "Hg10 mi
Weather by CustomWeather, © 2015

See weather overviewHow to use our weather pages